• In Austria
  • List of Countries
  • For 7 days
  • Water Temperature
  • Satellite Maps
  • Weather Map
  • News
  • Weather Widgets
  • user-avatar
    Login

    Hourly Weather Sarajevo

    Today, 21 October, Saturday

    Time Temperature Precipitation Wind Pressure Humidity
    00:00 +10°C° 0 mm 1 mps 691 mmHg 90%
    01:00 +10°C° 0 mm 1 mps 691 mmHg 89%
    02:00 +10°C° 0 mm 1 mps 691 mmHg 88%
    03:00 +9°C° 0 mm 1 mps 691 mmHg 88%
    04:00 +9°C° 0 mm 1 mps 690 mmHg 87%
    05:00 +9°C° 0 mm 1 mps 691 mmHg 85%
    06:00 +10°C° 0 mm 1 mps 691 mmHg 82%
    07:00 +10°C° 0 mm 1 mps 691 mmHg 79%
    08:00 +12°C° 0 mm 1 mps 691 mmHg 69%
    09:00 +15°C° 0 mm 1 mps 692 mmHg 59%
    10:00 +19°C° 0 mm 1 mps 692 mmHg 48%
    11:00 +19°C° 0 mm 1 mps 692 mmHg 45%
    12:00 +20°C° 0 mm 1 mps 692 mmHg 43%
    13:00 +20°C° 0 mm 2 mps 692 mmHg 40%
    14:00 +19°C° 0 mm 2 mps 691 mmHg 46%
    15:00 +19°C° 0 mm 1 mps 691 mmHg 52%
    16:00 +18°C° 0 mm 1 mps 690 mmHg 58%
    17:00 +15°C° 0 mm 1 mps 690 mmHg 66%
    18:00 +13°C° 0 mm 1 mps 690 mmHg 73%
    19:00 +11°C° 0 mm 1 mps 690 mmHg 80%
    20:00 +11°C° 0 mm 1 mps 690 mmHg 82%
    21:00 +11°C° 0 mm 1 mps 690 mmHg 83%
    22:00 +10°C° 0 mm 1 mps 690 mmHg 85%
    23:00 +10°C° 0 mm 1 mps 689 mmHg 85%

    Tomorrow, 22 October, Sunday

    Time Temperature Precipitation Wind Pressure Humidity
    00:00 +10°C° 0 mm 1 mps 689 mmHg 86%
    01:00 +10°C° 0 mm 1 mps 689 mmHg 87%
    02:00 +9°C° 0 mm 1 mps 689 mmHg 88%
    03:00 +9°C° 0 mm 1 mps 689 mmHg 88%
    04:00 +9°C° 0 mm 1 mps 688 mmHg 89%
    05:00 +9°C° 0 mm 1 mps 688 mmHg 89%
    06:00 +10°C° 0 mm 1 mps 688 mmHg 88%
    07:00 +10°C° 0 mm 1 mps 688 mmHg 88%
    08:00 +12°C° 0 mm 1 mps 689 mmHg 80%
    09:00 +14°C° 0 mm 1 mps 689 mmHg 72%
    10:00 +18°C° 0 mm 1 mps 689 mmHg 64%
    11:00 +18°C° 0 mm 1 mps 689 mmHg 63%
    12:00 +18°C° 0 mm 2 mps 688 mmHg 63%
    13:00 +18°C° 0 mm 2 mps 688 mmHg 62%
    14:00 +17°C° 0.1 mm 2 mps 687 mmHg 67%
    15:00 +16°C° 0.1 mm 2 mps 687 mmHg 72%
    16:00 +15°C° 0.1 mm 2 mps 686 mmHg 77%
    17:00 +14°C° 0.2 mm 2 mps 686 mmHg 83%
    18:00 +14°C° 0.2 mm 2 mps 685 mmHg 88%
    19:00 +13°C° 0.2 mm 2 mps 685 mmHg 93%
    20:00 +12°C° 0.9 mm 2 mps 685 mmHg 94%
    21:00 +12°C° 0.9 mm 2 mps 684 mmHg 95%
    22:00 +12°C° 0.9 mm 2 mps 684 mmHg 95%
    23:00 +11°C° 2.2 mm 3 mps 683 mmHg 95%

    Day after tomorrow, 23 October, Monday

    Time Temperature Precipitation Wind Pressure Humidity
    00:00 +11°C° 2.2 mm 3 mps 683 mmHg 95%
    01:00 +11°C° 2.2 mm 3 mps 683 mmHg 95%
    02:00 +11°C° 1.1 mm 3 mps 682 mmHg 95%
    03:00 +11°C° 1.1 mm 3 mps 682 mmHg 94%
    04:00 +10°C° 1.1 mm 2 mps 681 mmHg 94%
    05:00 +10°C° 1 mm 2 mps 681 mmHg 93%
    06:00 +9°C° 1 mm 2 mps 681 mmHg 93%
    07:00 +8°C° 1 mm 2 mps 681 mmHg 92%
    08:00 +8°C° 1.7 mm 3 mps 681 mmHg 91%
    09:00 +8°C° 1.7 mm 3 mps 681 mmHg 91%
    10:00 +7°C° 1.7 mm 3 mps 681 mmHg 90%
    11:00 +7°C° 1.8 mm 3 mps 681 mmHg 89%
    12:00 +6°C° 1.8 mm 4 mps 681 mmHg 88%
    13:00 +6°C° 1.8 mm 4 mps 681 mmHg 87%
    14:00 +5°C° 0.6 mm 4 mps 681 mmHg 86%
    15:00 +5°C° 0.6 mm 4 mps 681 mmHg 85%
    16:00 +5°C° 0.6 mm 4 mps 681 mmHg 84%
    17:00 +5°C° 0.1 mm 3 mps 681 mmHg 85%
    18:00 +4°C° 0.1 mm 3 mps 682 mmHg 85%
    19:00 +4°C° 0.1 mm 3 mps 682 mmHg 86%
    20:00 +4°C° 0.2 mm 3 mps 682 mmHg 86%
    21:00 +4°C° 0.2 mm 3 mps 682 mmHg 87%
    22:00 +4°C° 0.2 mm 3 mps 682 mmHg 87%
    23:00 +4°C° 0.3 mm 3 mps 682 mmHg 88%

    24 October, Tuesday

    Time Temperature Precipitation Wind Pressure Humidity
    00:00 +4°C° 0.3 mm 3 mps 682 mmHg 88%
    01:00 +4°C° 0.3 mm 3 mps 682 mmHg 88%
    02:00 +4°C° 0.3 mm 3 mps 682 mmHg 88%
    03:00 +4°C° 0.3 mm 4 mps 682 mmHg 88%
    04:00 +4°C° 0.3 mm 4 mps 682 mmHg 88%
    05:00 +4°C° 0.4 mm 4 mps 682 mmHg 88%
    06:00 +4°C° 0.4 mm 4 mps 682 mmHg 88%
    07:00 +4°C° 0.4 mm 4 mps 682 mmHg 87%
    08:00 +5°C° 0.3 mm 5 mps 682 mmHg 86%
    09:00 +5°C° 0.3 mm 5 mps 683 mmHg 84%
    10:00 +6°C° 0.3 mm 5 mps 683 mmHg 82%
    11:00 +6°C° 0.4 mm 5 mps 683 mmHg 82%
    12:00 +6°C° 0.4 mm 5 mps 683 mmHg 82%
    13:00 +6°C° 0.4 mm 5 mps 683 mmHg 81%
    14:00 +6°C° 0.2 mm 5 mps 683 mmHg 83%
    15:00 +6°C° 0.2 mm 5 mps 683 mmHg 84%
    16:00 +5°C° 0.2 mm 5 mps 683 mmHg 85%
    17:00 +5°C° 0.3 mm 6 mps 684 mmHg 85%
    18:00 +5°C° 0.3 mm 6 mps 684 mmHg 86%
    19:00 +5°C° 0.3 mm 6 mps 684 mmHg 86%
    20:00 +5°C° 0.2 mm 6 mps 685 mmHg 86%
    21:00 +5°C° 0.2 mm 6 mps 685 mmHg 86%
    22:00 +5°C° 0.2 mm 7 mps 686 mmHg 86%
    23:00 +5°C° 0.1 mm 6 mps 686 mmHg 86%

    25 October, Wednesday

    Time Temperature Precipitation Wind Pressure Humidity
    00:00 +5°C° 0.1 mm 6 mps 686 mmHg 87%
    01:00 +5°C° 0.1 mm 6 mps 686 mmHg 87%
    02:00 +6°C° 0.1 mm 5 mps 687 mmHg 87%
    03:00 +5°C° 0.1 mm 5 mps 687 mmHg 87%
    04:00 +5°C° 0.1 mm 5 mps 687 mmHg 87%
    05:00 +5°C° 0.1 mm 5 mps 688 mmHg 87%
    06:00 +5°C° 0.1 mm 5 mps 688 mmHg 87%
    07:00 +5°C° 0.1 mm 5 mps 688 mmHg 87%
    08:00 +5°C° 0 mm 5 mps 689 mmHg 85%
    09:00 +5°C° 0 mm 5 mps 689 mmHg 83%
    10:00 +6°C° 0 mm 5 mps 690 mmHg 81%
    11:00 +6°C° 0 mm 5 mps 690 mmHg 79%
    12:00 +6°C° 0 mm 5 mps 690 mmHg 78%
    13:00 +6°C° 0 mm 5 mps 690 mmHg 77%
    14:00 +6°C° 0 mm 5 mps 690 mmHg 77%
    15:00 +5°C° 0 mm 5 mps 690 mmHg 77%
    16:00 +5°C° 0 mm 5 mps 690 mmHg 77%
    17:00 +3°C° 0 mm 5 mps 690 mmHg 78%
    18:00 +2°C° 0 mm 5 mps 690 mmHg 79%
    19:00 +3°C° 0 mm 4 mps 690 mmHg 81%
    20:00 +1°C° 0 mm 4 mps 691 mmHg 81%
    21:00 +1°C° 0 mm 4 mps 691 mmHg 81%
    22:00 +1°C° 0 mm 4 mps 691 mmHg 81%
    23:00 +1°C° 0 mm 4 mps 691 mmHg 80%

    26 October, Thursday

    Time Temperature Precipitation Wind Pressure Humidity
    00:00 0°C° 0 mm 5 mps 691 mmHg 80%
    01:00 0°C° 0 mm 5 mps 691 mmHg 79%
    02:00 0°C° 0 mm 5 mps 691 mmHg 80%
    03:00 0°C° 0 mm 5 mps 691 mmHg 80%
    04:00 0°C° 0 mm 5 mps 691 mmHg 80%
    05:00 0°C° 0.1 mm 5 mps 692 mmHg 80%
    06:00 0°C° 0.1 mm 5 mps 692 mmHg 79%
    07:00 0°C° 0.1 mm 5 mps 692 mmHg 79%
    08:00 +1°C° 0 mm 5 mps 693 mmHg 75%
    09:00 +2°C° 0 mm 5 mps 693 mmHg 71%
    10:00 +3°C° 0 mm 5 mps 694 mmHg 67%
    11:00 +5°C° 0 mm 4 mps 694 mmHg 65%
    12:00 +5°C° 0 mm 4 mps 694 mmHg 64%
    13:00 +6°C° 0 mm 4 mps 694 mmHg 63%
    14:00 +5°C° 0 mm 4 mps 694 mmHg 65%
    15:00 +5°C° 0 mm 4 mps 694 mmHg 68%
    16:00 +4°C° 0 mm 4 mps 694 mmHg 70%
    17:00 +3°C° 0 mm 3 mps 694 mmHg 75%
    18:00 +2°C° 0 mm 3 mps 695 mmHg 79%
    19:00 +1°C° 0 mm 3 mps 695 mmHg 84%
    20:00 0°C° 0 mm 3 mps 695 mmHg 84%
    21:00 0°C° 0 mm 3 mps 695 mmHg 84%
    22:00 0°C° 0 mm 3 mps 696 mmHg 85%
    23:00 -1°C° 0 mm 2 mps 696 mmHg 84%
    Show more